Time,TemperatureF,DewpointF,PressureIn,WindDirection,WindDirectionDegrees,WindSpeedMPH,WindSpeedGustMPH,Humidity,HourlyPrecipIn,Conditions,Clouds,dailyrainin,SolarRadiationWatts/m^2,SoftwareType,DateUTC
2013-08-10 00:04:00,54.7,50.9,30.12,NW,325,2.3,2.3,87,0.00,RA,,0.00,0.0,WeatherDisplay:10.37,2013-08-09 23:04:00,
2013-08-10 00:09:00,54.5,51.0,30.12,WSW,243,3.5,3.5,88,0.00,RA,,0.00,0.0,WeatherDisplay:10.37,2013-08-09 23:09:00,
2013-08-10 00:15:00,54.5,51.0,30.12,SW,236,3.5,3.5,88,0.00,CLR,,0.00,0.0,WeatherDisplay:10.37,2013-08-09 23:15:00,
2013-08-10 00:20:00,54.5,51.0,30.12,NNW,328,3.5,3.5,88,0.00,CLR,,0.00,0.0,WeatherDisplay:10.37,2013-08-09 23:20:00,
2013-08-10 00:25:00,54.5,51.3,30.12,NW,316,5.8,5.8,89,0.00,CLR,,0.00,0.0,WeatherDisplay:10.37,2013-08-09 23:25:00,
2013-08-10 00:30:00,54.5,51.3,30.12,NW,326,0.0,6.0,89,0.00,CLR,,0.00,0.0,WeatherDisplay:10.37,2013-08-09 23:30:00,
2013-08-10 00:35:00,54.4,51.2,30.12,NW,326,2.3,2.3,89,0.00,CLR,,0.00,0.0,WeatherDisplay:10.37,2013-08-09 23:35:00,
2013-08-10 00:40:00,54.4,51.2,30.12,NW,323,3.5,0.0,89,0.00,CLR,,0.00,0.0,WeatherDisplay:10.37,2013-08-09 23:40:00,
2013-08-10 00:45:00,54.4,51.2,30.12,NW,326,0.0,0.0,89,0.00,CLR,,0.00,0.0,WeatherDisplay:10.37,2013-08-09 23:45:00,
2013-08-10 00:51:00,54.4,51.2,30.12,SW,229,0.0,0.0,89,0.00,CLR,,0.00,0.0,WeatherDisplay:10.37,2013-08-09 23:51:00,
2013-08-10 00:56:00,54.4,51.2,30.12,SW,234,1.0,1.0,89,0.00,CLR,,0.00,0.0,WeatherDisplay:10.37,2013-08-09 23:56:00,
2013-08-10 01:01:00,54.2,51.0,30.12,SW,234,2.3,2.3,89,0.00,CLR,,0.00,0.0,WeatherDisplay:10.37,2013-08-10 00:01:00,
2013-08-10 01:06:00,54.1,50.9,30.12,North,0,3.5,3.5,89,0.00,CLR,,0.00,0.0,WeatherDisplay:10.37,2013-08-10 00:06:00,
2013-08-10 01:11:00,53.9,50.7,30.13,NW,319,3.5,3.5,89,0.00,CLR,,0.00,0.0,WeatherDisplay:10.37,2013-08-10 00:11:00,
2013-08-10 01:16:00,53.9,50.7,30.13,SW,234,1.2,1.2,89,0.00,CLR,,0.00,0.0,WeatherDisplay:10.37,2013-08-10 00:16:00,
2013-08-10 01:21:00,53.8,50.6,30.12,North,0,4.6,4.6,89,0.00,CLR,,0.00,0.0,WeatherDisplay:10.37,2013-08-10 00:21:00,
2013-08-10 01:26:00,53.6,50.1,30.12,North,359,1.2,0.0,88,0.00,CLR,,0.00,0.0,WeatherDisplay:10.37,2013-08-10 00:26:00,
2013-08-10 01:31:00,53.6,50.1,30.12,NNW,347,1.2,1.2,88,0.00,CLR,,0.00,0.0,WeatherDisplay:10.37,2013-08-10 00:31:00,
2013-08-10 01:37:00,53.5,50.0,30.12,WSW,241,2.3,2.3,88,0.00,CLR,,0.00,0.0,WeatherDisplay:10.37,2013-08-10 00:37:00,
2013-08-10 01:42:00,53.3,49.8,30.12,WSW,237,0.0,0.0,88,0.00,CLR,,0.00,0.0,WeatherDisplay:10.37,2013-08-10 00:42:00,
2013-08-10 01:47:00,53.3,49.8,30.12,WSW,240,1.2,1.2,88,0.00,CLR,,0.00,0.0,WeatherDisplay:10.37,2013-08-10 00:47:00,
2013-08-10 01:52:00,53.3,49.8,30.12,WSW,240,1.2,0.0,88,0.00,CLR,,0.00,0.0,WeatherDisplay:10.37,2013-08-10 00:52:00,
2013-08-10 01:57:00,53.2,50.0,30.12,WSW,241,1.2,1.2,89,0.00,CLR,,0.00,0.0,WeatherDisplay:10.37,2013-08-10 00:57:00,
2013-08-10 02:02:00,53.2,50.0,30.12,WSW,241,0.0,0.0,89,0.00,CLR,,0.00,0.0,WeatherDisplay:10.37,2013-08-10 01:02:00,
2013-08-10 02:07:00,53.2,50.0,30.12,NNW,346,1.2,1.2,89,0.00,CLR,,0.00,0.0,WeatherDisplay:10.37,2013-08-10 01:07:00,
2013-08-10 02:12:00,53.2,50.0,30.11,NNW,347,2.3,0.0,89,0.00,CLR,,0.00,0.0,WeatherDisplay:10.37,2013-08-10 01:12:00,
2013-08-10 02:18:00,53.1,49.9,30.11,North,354,2.0,2.0,89,0.00,CLR,,0.00,0.0,WeatherDisplay:10.37,2013-08-10 01:18:00,
2013-08-10 02:23:00,53.1,49.9,30.11,SW,227,0.0,0.0,89,0.00,CLR,,0.00,0.0,WeatherDisplay:10.37,2013-08-10 01:23:00,
2013-08-10 02:28:00,53.1,49.9,30.11,North,0,1.0,0.0,89,0.00,CLR,,0.00,0.0,WeatherDisplay:10.37,2013-08-10 01:28:00,
2013-08-10 02:33:00,53.1,49.9,30.11,SW,236,2.3,2.3,89,0.00,CLR,,0.00,0.0,WeatherDisplay:10.37,2013-08-10 01:33:00,
2013-08-10 02:38:00,53.1,49.9,30.11,SW,234,0.0,0.0,89,0.00,CLR,,0.00,0.0,WeatherDisplay:10.37,2013-08-10 01:38:00,
2013-08-10 02:43:00,53.1,50.2,30.11,WSW,250,1.2,1.2,90,0.00,CLR,,0.00,0.0,WeatherDisplay:10.37,2013-08-10 01:43:00,
2013-08-10 02:48:00,53.2,50.3,30.11,North,0,2.3,2.3,90,0.00,CLR,,0.00,0.0,WeatherDisplay:10.37,2013-08-10 01:48:00,
2013-08-10 02:53:00,53.2,50.3,30.11,North,359,1.2,0.0,90,0.00,CLR,,0.00,0.0,WeatherDisplay:10.37,2013-08-10 01:53:00,
2013-08-10 02:58:00,53.2,50.3,30.11,North,0,0.0,0.0,90,0.00,CLR,,0.00,0.0,WeatherDisplay:10.37,2013-08-10 01:58:00,
2013-08-10 03:04:00,53.2,50.3,30.11,NNW,329,2.3,2.3,90,0.00,CLR,,0.00,0.0,WeatherDisplay:10.37,2013-08-10 02:04:00,
2013-08-10 03:09:00,53.3,50.7,30.11,WSW,239,2.3,2.3,91,0.00,CLR,,0.00,0.0,WeatherDisplay:10.37,2013-08-10 02:09:00,
2013-08-10 03:14:00,53.3,50.7,30.11,North,0,2.3,2.3,91,0.00,CLR,,0.00,0.0,WeatherDisplay:10.37,2013-08-10 02:14:00,
2013-08-10 03:19:00,53.5,50.9,30.11,North,0,0.0,0.0,91,0.00,CLR,,0.00,0.0,WeatherDisplay:10.37,2013-08-10 02:19:00,
2013-08-10 03:24:00,53.5,51.2,30.11,NW,319,3.5,3.5,92,0.00,CLR,,0.00,0.0,WeatherDisplay:10.37,2013-08-10 02:24:00,
2013-08-10 03:29:00,53.6,51.3,30.11,WSW,241,0.0,0.2,92,0.00,CLR,,0.00,0.0,WeatherDisplay:10.37,2013-08-10 02:29:00,
2013-08-10 03:34:00,53.6,51.3,30.11,WSW,241,0.0,0.0,92,0.00,CLR,,0.00,0.0,WeatherDisplay:10.37,2013-08-10 02:34:00,
2013-08-10 03:39:00,53.6,51.3,30.11,WSW,241,1.2,0.0,92,0.00,CLR,,0.00,0.0,WeatherDisplay:10.37,2013-08-10 02:39:00,
2013-08-10 03:45:00,53.6,51.6,30.11,WSW,241,0.0,0.0,93,0.00,CLR,,0.00,0.0,WeatherDisplay:10.37,2013-08-10 02:45:00,
2013-08-10 03:50:00,53.6,51.6,30.11,WSW,240,1.2,0.0,93,0.00,CLR,,0.00,0.0,WeatherDisplay:10.37,2013-08-10 02:50:00,
2013-08-10 03:55:00,53.5,51.5,30.11,SW,234,0.0,0.0,93,0.00,CLR,,0.00,0.0,WeatherDisplay:10.37,2013-08-10 02:55:00,
2013-08-10 04:00:00,53.5,51.5,30.11,NNW,346,1.2,1.2,93,0.00,CLR,,0.00,0.0,WeatherDisplay:10.37,2013-08-10 03:00:00,
2013-08-10 04:05:00,53.5,51.5,30.11,SW,227,1.0,0.0,93,0.00,CLR,,0.00,0.0,WeatherDisplay:10.37,2013-08-10 03:05:00,
2013-08-10 04:10:00,53.5,51.8,30.11,West,280,1.2,1.2,94,0.00,CLR,,0.00,0.0,WeatherDisplay:10.37,2013-08-10 03:10:00,
2013-08-10 04:15:00,53.5,51.8,30.11,NNW,344,2.3,2.3,94,0.00,CLR,,0.00,0.0,WeatherDisplay:10.37,2013-08-10 03:15:00,
2013-08-10 04:20:00,53.3,51.6,30.11,North,352,0.0,0.0,94,0.00,CLR,,0.00,0.0,WeatherDisplay:10.37,2013-08-10 03:20:00,
2013-08-10 04:25:00,53.3,51.6,30.11,NNW,343,0.0,0.0,94,0.00,CLR,,0.00,0.0,WeatherDisplay:10.37,2013-08-10 03:25:00,
2013-08-10 04:31:00,53.2,51.5,30.11,North,0,2.3,2.3,94,0.00,CLR,,0.00,0.0,WeatherDisplay:10.37,2013-08-10 03:31:00,
2013-08-10 04:36:00,53.2,51.5,30.10,SW,229,1.2,1.2,94,0.00,CLR,,0.00,0.0,WeatherDisplay:10.37,2013-08-10 03:36:00,
2013-08-10 04:41:00,53.1,51.4,30.10,SW,229,0.0,0.0,94,0.00,CLR,,0.00,0.0,WeatherDisplay:10.37,2013-08-10 03:41:00,
2013-08-10 04:46:00,53.1,51.4,30.10,SW,229,0.0,0.0,94,0.00,CLR,,0.00,0.0,WeatherDisplay:10.37,2013-08-10 03:46:00,
2013-08-10 04:51:00,53.1,51.4,30.10,NW,323,2.3,2.3,94,0.00,CLR,,0.00,0.0,WeatherDisplay:10.37,2013-08-10 03:51:00,
2013-08-10 04:56:00,52.9,51.5,30.10,NW,326,0.0,0.0,95,0.00,CLR,,0.00,0.0,WeatherDisplay:10.37,2013-08-10 03:56:00,
2013-08-10 05:01:00,52.9,51.5,30.10,NW,326,0.0,0.0,95,0.00,CLR,,0.00,0.0,WeatherDisplay:10.37,2013-08-10 04:01:00,
2013-08-10 05:02:00,52.9,51.5,30.10,NNW,328,0.0,0.0,95,0.00,CLR,,0.00,0.0,WeatherDisplay:10.37,2013-08-10 04:02:00,
2013-08-10 05:03:00,52.9,51.5,30.10,NNW,328,0.0,0.0,95,0.00,CLR,,0.00,0.0,WeatherDisplay:10.37,2013-08-10 04:03:00,
2013-08-10 05:04:00,52.9,51.5,30.10,NNW,328,1.2,1.2,95,0.00,CLR,,0.00,0.0,WeatherDisplay:10.37,2013-08-10 04:04:00,
2013-08-10 05:09:00,52.9,51.5,30.10,NW,320,0.0,0.0,95,0.00,OVC,,0.00,0.0,WeatherDisplay:10.37,2013-08-10 04:09:00,
2013-08-10 05:14:00,52.9,51.5,30.10,NW,316,0.0,0.0,95,0.00,OVC,,0.00,0.0,WeatherDisplay:10.37,2013-08-10 04:14:00,
2013-08-10 05:19:00,52.9,51.5,30.10,NW,326,0.0,0.0,95,0.00,OVC,,0.00,0.0,WeatherDisplay:10.37,2013-08-10 04:19:00,
2013-08-10 05:24:00,52.9,51.5,30.10,NW,320,2.3,0.0,95,0.00,OVC,,0.00,0.0,WeatherDisplay:10.37,2013-08-10 04:24:00,
2013-08-10 05:29:00,52.9,51.5,30.10,NW,325,0.0,1.2,95,0.00,OVC,,0.00,0.0,WeatherDisplay:10.37,2013-08-10 04:29:00,
2013-08-10 05:35:00,52.9,51.5,30.10,NW,320,1.0,0.0,95,0.00,OVC,,0.00,0.0,WeatherDisplay:10.37,2013-08-10 04:35:00,
2013-08-10 05:40:00,52.9,51.5,30.10,North,357,0.0,0.0,95,0.00,OVC,,0.00,5.0,WeatherDisplay:10.37,2013-08-10 04:40:00,
2013-08-10 05:45:00,52.9,51.5,30.10,North,356,1.2,1.2,95,0.00,OVC,,0.00,5.0,WeatherDisplay:10.37,2013-08-10 04:45:00,
2013-08-10 05:50:00,52.9,51.5,30.10,North,0,0.0,0.0,95,0.00,CLR,,0.00,7.0,WeatherDisplay:10.37,2013-08-10 04:50:00,
2013-08-10 05:55:00,52.9,51.5,30.10,North,0,1.2,1.2,95,0.00,BKN,,0.00,7.0,WeatherDisplay:10.37,2013-08-10 04:55:00,
2013-08-10 06:00:00,52.9,51.5,30.10,NNW,346,0.0,0.0,95,0.00,BKN,,0.00,11.0,WeatherDisplay:10.37,2013-08-10 05:00:00,
2013-08-10 06:05:00,52.9,51.5,30.10,North,0,0.0,0.0,95,0.00,BKN,,0.00,12.0,WeatherDisplay:10.37,2013-08-10 05:05:00,
2013-08-10 06:10:00,52.9,51.5,30.10,SW,234,1.2,0.0,95,0.00,BKN,,0.00,16.0,WeatherDisplay:10.37,2013-08-10 05:10:00,
2013-08-10 06:15:00,52.9,51.5,30.10,SW,233,0.0,0.0,95,0.00,OVC,,0.00,16.0,WeatherDisplay:10.37,2013-08-10 05:15:00,
2013-08-10 06:21:00,52.9,51.5,30.10,SW,233,0.0,0.0,95,0.00,OVC,,0.00,16.0,WeatherDisplay:10.37,2013-08-10 05:21:00,
2013-08-10 06:26:00,53.1,51.7,30.10,North,357,2.3,2.3,95,0.00,OVC,,0.00,19.0,WeatherDisplay:10.37,2013-08-10 05:26:00,
2013-08-10 06:31:00,53.1,51.7,30.10,North,0,2.3,2.3,95,0.00,OVC,,0.00,19.0,WeatherDisplay:10.37,2013-08-10 05:31:00,
2013-08-10 06:36:00,53.2,51.8,30.10,NNW,328,3.5,3.5,95,0.00,OVC,,0.00,21.0,WeatherDisplay:10.37,2013-08-10 05:36:00,
2013-08-10 06:41:00,53.2,51.8,30.10,NNW,342,3.5,3.5,95,0.00,OVC,,0.00,23.0,WeatherDisplay:10.37,2013-08-10 05:41:00,
2013-08-10 06:46:00,53.2,51.8,30.10,NNW,336,3.5,3.5,95,0.00,OVC,,0.00,26.0,WeatherDisplay:10.37,2013-08-10 05:46:00,
2013-08-10 06:51:00,53.2,51.8,30.10,NNW,333,5.8,5.8,95,0.00,OVC,,0.00,33.0,WeatherDisplay:10.37,2013-08-10 05:51:00,
2013-08-10 06:56:00,53.3,51.9,30.10,NNW,343,3.5,3.5,95,0.00,BKN,,0.00,46.0,WeatherDisplay:10.37,2013-08-10 05:56:00,
2013-08-10 07:01:00,53.3,51.6,30.10,North,353,5.8,5.8,94,0.00,BKN,,0.00,48.0,WeatherDisplay:10.37,2013-08-10 06:01:00,
2013-08-10 07:06:00,53.3,51.6,30.10,North,0,3.5,3.5,94,0.00,SCT,,0.00,86.0,WeatherDisplay:10.37,2013-08-10 06:06:00,
2013-08-10 07:11:00,53.5,51.8,30.10,North,350,6.9,6.9,94,0.00,SCT,,0.00,106.0,WeatherDisplay:10.37,2013-08-10 06:11:00,
2013-08-10 07:17:00,53.6,51.9,30.10,North,357,0.0,0.0,94,0.00,SCT,,0.00,106.0,WeatherDisplay:10.37,2013-08-10 06:17:00,
2013-08-10 07:22:00,53.8,52.1,30.10,North,0,5.8,5.8,94,0.00,SCT,,0.00,113.0,WeatherDisplay:10.37,2013-08-10 06:22:00,
2013-08-10 07:27:00,53.8,52.1,30.10,NNW,343,4.6,4.6,94,0.00,SCT,,0.00,107.0,WeatherDisplay:10.37,2013-08-10 06:27:00,
2013-08-10 07:32:00,53.9,52.2,30.10,NW,320,5.8,5.8,94,0.00,SCT,,0.00,100.0,WeatherDisplay:10.37,2013-08-10 06:32:00,
2013-08-10 07:37:00,53.9,51.9,30.10,NNW,346,3.5,3.5,93,0.00,BKN,,0.00,106.0,WeatherDisplay:10.37,2013-08-10 06:37:00,
2013-08-10 07:42:00,53.8,51.8,30.10,WSW,243,3.5,3.5,93,0.00,BKN,,0.00,113.0,WeatherDisplay:10.37,2013-08-10 06:42:00,
2013-08-10 07:47:00,53.8,51.5,30.10,NW,316,5.8,5.8,92,0.00,BKN,,0.00,106.0,WeatherDisplay:10.37,2013-08-10 06:47:00,
2013-08-10 07:52:00,53.9,51.6,30.10,NW,318,4.6,4.6,92,0.00,BKN,,0.00,109.0,WeatherDisplay:10.37,2013-08-10 06:52:00,
2013-08-10 07:58:00,53.9,51.3,30.10,NW,312,4.6,4.6,91,0.00,BKN,,0.00,121.0,WeatherDisplay:10.37,2013-08-10 06:58:00,
2013-08-10 08:03:00,54.1,51.5,30.10,NNW,332,2.3,2.3,91,0.00,BKN,,0.00,106.0,WeatherDisplay:10.37,2013-08-10 07:03:00,
2013-08-10 08:08:00,54.1,51.2,30.10,NW,316,4.6,4.6,90,0.00,OVC,,0.00,93.0,WeatherDisplay:10.37,2013-08-10 07:08:00,
2013-08-10 08:13:00,54.2,51.3,30.10,NW,325,2.3,2.3,90,0.00,BKN,,0.00,118.0,WeatherDisplay:10.37,2013-08-10 07:13:00,
2013-08-10 08:18:00,54.2,51.3,30.10,NNW,330,3.5,3.5,90,0.00,SCT,,0.00,202.0,WeatherDisplay:10.37,2013-08-10 07:18:00,
2013-08-10 08:23:00,54.4,51.5,30.10,NNW,344,5.0,5.0,90,0.00,FEW,,0.00,245.0,WeatherDisplay:10.37,2013-08-10 07:23:00,
2013-08-10 08:28:00,54.8,51.6,30.10,North,0,3.5,3.5,89,0.00,FEW,,0.00,216.0,WeatherDisplay:10.37,2013-08-10 07:28:00,
2013-08-10 08:33:00,55.1,51.6,30.10,NW,316,2.3,2.3,88,0.00,SCT,,0.00,227.0,WeatherDisplay:10.37,2013-08-10 07:33:00,
2013-08-10 08:38:00,55.4,51.6,30.10,NNW,346,3.5,3.5,87,0.00,FEW,,0.00,333.0,WeatherDisplay:10.37,2013-08-10 07:38:00,
2013-08-10 08:43:00,56.0,51.6,30.10,NNW,335,3.5,0.0,85,0.00,FEW,,0.00,311.0,WeatherDisplay:10.37,2013-08-10 07:43:00,
2013-08-10 08:48:00,56.3,51.2,30.10,NW,320,2.3,2.3,83,0.00,SCT,,0.00,257.0,WeatherDisplay:10.37,2013-08-10 07:48:00,
2013-08-10 08:53:00,56.9,51.8,30.10,North,356,6.9,0.0,83,0.00,SCT,,0.00,271.0,WeatherDisplay:10.37,2013-08-10 07:53:00,
2013-08-10 08:59:00,57.3,52.2,30.10,North,356,5.8,5.8,83,0.00,CLR,,0.00,454.0,WeatherDisplay:10.37,2013-08-10 07:59:00,
2013-08-10 09:04:00,58.0,52.5,30.10,NNW,347,6.0,6.0,82,0.00,CLR,,0.00,632.0,WeatherDisplay:10.37,2013-08-10 08:04:00,
2013-08-10 09:09:00,58.0,52.2,30.10,North,353,3.5,3.5,81,0.00,SCT,,0.00,303.0,WeatherDisplay:10.37,2013-08-10 08:09:00,
2013-08-10 09:14:00,58.0,52.2,30.10,North,356,4.0,4.0,81,0.00,BKN,,0.00,187.0,WeatherDisplay:10.37,2013-08-10 08:14:00,
2013-08-10 09:19:00,57.6,52.5,30.10,North,353,5.8,5.8,83,0.00,BKN,,0.00,201.0,WeatherDisplay:10.37,2013-08-10 08:19:00,
2013-08-10 09:24:00,57.5,52.4,30.10,North,0,3.5,3.5,83,0.00,SCT,,0.00,282.0,WeatherDisplay:10.37,2013-08-10 08:24:00,
2013-08-10 09:29:00,57.6,52.5,30.10,North,349,5.8,5.8,83,0.00,BKN,,0.00,192.0,WeatherDisplay:10.37,2013-08-10 08:29:00,
2013-08-10 09:35:00,57.5,52.7,30.11,North,356,10.4,10.4,84,0.00,OVC,,0.00,123.0,WeatherDisplay:10.37,2013-08-10 08:35:00,
2013-08-10 09:40:00,56.5,52.7,30.11,North,353,3.5,3.5,87,0.00,OVC,,0.00,158.0,WeatherDisplay:10.37,2013-08-10 08:40:00,
2013-08-10 09:45:00,56.0,53.1,30.11,SW,226,1.2,1.2,90,0.00,OVC,,0.00,171.0,WeatherDisplay:10.37,2013-08-10 08:45:00,
2013-08-10 09:50:00,55.9,53.6,30.10,SW,229,3.5,3.5,92,0.00,BKN,,0.00,208.0,WeatherDisplay:10.37,2013-08-10 08:50:00,
2013-08-10 09:55:00,55.7,53.4,30.10,NW,322,3.5,3.5,92,0.00,BKN,,0.00,246.0,WeatherDisplay:10.37,2013-08-10 08:55:00,
2013-08-10 10:00:00,56.3,54.3,30.10,NNW,347,1.2,1.2,93,0.00,BKN,,0.00,283.0,WeatherDisplay:10.37,2013-08-10 09:00:00,
2013-08-10 10:06:00,56.7,54.4,30.10,NW,316,2.0,2.0,92,0.00,OVC,,0.00,202.0,WeatherDisplay:10.37,2013-08-10 09:06:00,
2013-08-10 10:11:00,56.5,53.6,30.10,NNW,336,3.0,3.0,90,0.00,OVC,,0.00,130.0,WeatherDisplay:10.37,2013-08-10 09:11:00,
2013-08-10 10:16:00,56.3,53.4,30.10,North,0,8.1,8.1,90,0.00,OVC,,0.00,151.0,WeatherDisplay:10.37,2013-08-10 09:16:00,
2013-08-10 10:21:00,56.3,53.4,30.10,NW,323,3.5,3.5,90,0.00,OVC,,0.00,148.0,WeatherDisplay:10.37,2013-08-10 09:21:00,
2013-08-10 10:26:00,56.3,53.4,30.10,North,0,2.0,2.0,90,0.00,OVC,,0.00,113.0,WeatherDisplay:10.37,2013-08-10 09:26:00,
2013-08-10 10:32:00,56.2,53.3,30.10,NW,320,4.6,4.6,90,0.00,OVC,,0.00,107.0,WeatherDisplay:10.37,2013-08-10 09:32:00,
2013-08-10 10:37:00,56.0,52.8,30.10,SW,226,4.6,4.6,89,0.00,OVC,,0.00,160.0,WeatherDisplay:10.37,2013-08-10 09:37:00,
2013-08-10 10:42:00,56.2,53.0,30.10,NW,312,3.5,3.5,89,0.00,OVC,,0.00,181.0,WeatherDisplay:10.37,2013-08-10 09:42:00,
2013-08-10 10:47:00,56.6,53.1,30.10,NW,323,7.0,7.0,88,0.01,RA,,0.01,236.0,WeatherDisplay:10.37,2013-08-10 09:47:00,
2013-08-10 10:52:00,56.7,53.2,30.10,SW,230,4.6,4.6,88,0.01,RA,,0.01,185.0,WeatherDisplay:10.37,2013-08-10 09:52:00,
2013-08-10 10:57:00,56.9,53.4,30.10,North,359,3.5,3.5,88,0.01,OVC,,0.01,123.0,WeatherDisplay:10.37,2013-08-10 09:57:00,
2013-08-10 11:02:00,56.7,53.2,30.10,North,0,3.5,0.0,88,0.01,OVC,,0.01,106.0,WeatherDisplay:10.37,2013-08-10 10:02:00,
2013-08-10 11:08:00,56.5,53.3,30.10,North,0,1.2,1.2,89,0.01,OVC,,0.01,260.0,WeatherDisplay:10.37,2013-08-10 10:08:00,
2013-08-10 11:13:00,56.6,53.7,30.10,North,356,4.6,4.6,90,0.01,BKN,,0.01,343.0,WeatherDisplay:10.37,2013-08-10 10:13:00,
2013-08-10 11:18:00,57.5,54.3,30.10,North,359,5.8,5.8,89,0.01,BKN,,0.01,375.0,WeatherDisplay:10.37,2013-08-10 10:18:00,
2013-08-10 11:23:00,58.1,54.9,30.10,NNW,332,2.3,2.3,89,0.01,BKN,,0.01,320.0,WeatherDisplay:10.37,2013-08-10 10:23:00,
2013-08-10 11:28:00,58.1,54.6,30.10,North,0,5.0,5.0,88,0.01,OVC,,0.01,266.0,WeatherDisplay:10.37,2013-08-10 10:28:00,
2013-08-10 11:34:00,58.0,53.8,30.10,North,349,6.9,6.9,86,0.01,OVC,,0.01,264.0,WeatherDisplay:10.37,2013-08-10 10:34:00,
2013-08-10 11:39:00,57.8,53.6,30.10,NW,325,7.0,7.0,86,0.01,BKN,,0.01,341.0,WeatherDisplay:10.37,2013-08-10 10:39:00,
2013-08-10 11:44:00,57.6,52.5,30.10,NW,322,5.8,5.8,83,0.01,BKN,,0.01,361.0,WeatherDisplay:10.37,2013-08-10 10:44:00,
2013-08-10 11:49:00,58.4,52.6,30.09,North,0,5.8,5.8,81,0.00,BKN,,0.01,405.0,WeatherDisplay:10.37,2013-08-10 10:49:00,
2013-08-10 11:54:00,58.7,52.2,30.09,NW,326,8.1,8.1,79,0.00,BKN,,0.01,333.0,WeatherDisplay:10.37,2013-08-10 10:54:00,
2013-08-10 11:59:00,59.2,53.0,30.09,NW,322,3.5,3.5,80,0.00,BKN,,0.01,392.0,WeatherDisplay:10.37,2013-08-10 10:59:00,
2013-08-10 12:04:00,59.3,52.4,30.09,NNW,333,2.3,2.3,78,0.00,BKN,,0.01,401.0,WeatherDisplay:10.37,2013-08-10 11:04:00,
2013-08-10 12:10:00,59.5,51.9,30.09,North,353,11.5,11.5,76,0.00,BKN,,0.01,417.0,WeatherDisplay:10.37,2013-08-10 11:10:00,
2013-08-10 12:15:00,59.8,51.9,30.09,NNW,333,6.9,6.9,75,0.00,BKN,,0.01,403.0,WeatherDisplay:10.37,2013-08-10 11:15:00,
2013-08-10 12:20:00,59.8,51.1,30.09,North,350,5.8,5.8,73,0.00,BKN,,0.01,368.0,WeatherDisplay:10.37,2013-08-10 11:20:00,
2013-08-10 12:25:00,60.1,51.8,30.09,NW,316,6.0,6.0,74,0.00,SCT,,0.01,586.0,WeatherDisplay:10.37,2013-08-10 11:25:00,
2013-08-10 12:30:00,60.4,52.1,30.09,NW,322,2.0,10.0,74,0.00,SCT,,0.01,493.0,WeatherDisplay:10.37,2013-08-10 11:30:00,
2013-08-10 12:35:00,60.5,52.5,30.09,NW,326,8.1,8.1,75,0.00,SCT,,0.01,523.0,WeatherDisplay:10.37,2013-08-10 11:35:00,
2013-08-10 12:40:00,60.2,52.2,30.09,NW,319,6.9,6.9,75,0.00,BKN,,0.01,341.0,WeatherDisplay:10.37,2013-08-10 11:40:00,
2013-08-10 12:45:00,59.9,52.7,30.09,North,0,8.1,8.1,77,0.00,OVC,,0.01,308.0,WeatherDisplay:10.37,2013-08-10 11:45:00,
2013-08-10 12:50:00,59.2,52.3,30.09,SW,227,10.4,10.4,78,0.00,OVC,,0.01,299.0,WeatherDisplay:10.37,2013-08-10 11:50:00,
2013-08-10 12:55:00,58.7,52.5,30.09,North,356,5.8,5.8,80,0.00,BKN,,0.01,343.0,WeatherDisplay:10.37,2013-08-10 11:55:00,
2013-08-10 13:01:00,58.9,52.7,30.09,North,352,6.0,6.0,80,0.00,SCT,,0.01,456.0,WeatherDisplay:10.37,2013-08-10 12:01:00,
2013-08-10 13:06:00,59.3,53.1,30.08,NNW,329,2.3,2.3,80,0.00,SCT,,0.01,558.0,WeatherDisplay:10.37,2013-08-10 12:06:00,
2013-08-10 13:11:00,60.7,53.1,30.08,North,353,11.5,11.5,76,0.00,SCT,,0.01,510.0,WeatherDisplay:10.37,2013-08-10 12:11:00,
2013-08-10 13:16:00,60.5,52.2,30.08,NW,319,5.8,5.8,74,0.00,BKN,,0.01,403.0,WeatherDisplay:10.37,2013-08-10 12:16:00,
2013-08-10 13:21:00,60.5,52.2,30.08,NW,323,3.5,3.5,74,0.00,BKN,,0.01,338.0,WeatherDisplay:10.37,2013-08-10 12:21:00,
2013-08-10 13:26:00,60.5,52.9,30.08,NNW,342,11.5,11.5,76,0.00,OVC,,0.01,218.0,WeatherDisplay:10.37,2013-08-10 12:26:00,
2013-08-10 13:31:00,59.9,53.0,30.08,North,352,6.9,6.9,78,0.00,OVC,,0.01,164.0,WeatherDisplay:10.37,2013-08-10 12:31:00,
2013-08-10 13:37:00,58.9,53.1,30.08,North,349,3.5,3.5,81,0.00,OVC,,0.01,167.0,WeatherDisplay:10.37,2013-08-10 12:37:00,
2013-08-10 13:42:00,58.3,52.8,30.08,NNW,336,8.1,8.1,82,0.00,OVC,,0.01,206.0,WeatherDisplay:10.37,2013-08-10 12:42:00,
2013-08-10 13:47:00,58.3,53.2,30.08,North,350,6.9,6.9,83,0.00,OVC,,0.01,236.0,WeatherDisplay:10.37,2013-08-10 12:47:00,
2013-08-10 13:52:00,58.3,53.2,30.08,NW,322,5.8,5.8,83,0.00,OVC,,0.01,264.0,WeatherDisplay:10.37,2013-08-10 12:52:00,
2013-08-10 13:57:00,58.4,52.6,30.08,NW,315,7.0,7.0,81,0.00,OVC,,0.01,299.0,WeatherDisplay:10.37,2013-08-10 12:57:00,
2013-08-10 14:02:00,59.0,52.8,30.08,NW,319,3.5,3.5,80,0.00,BKN,,0.01,375.0,WeatherDisplay:10.37,2013-08-10 13:02:00,
2013-08-10 14:07:00,59.9,53.0,30.08,NW,318,5.8,5.8,78,0.00,BKN,,0.01,426.0,WeatherDisplay:10.37,2013-08-10 13:07:00,
2013-08-10 14:12:00,60.4,52.4,30.08,SW,230,4.6,4.6,75,0.00,BKN,,0.01,306.0,WeatherDisplay:10.37,2013-08-10 13:12:00,
2013-08-10 14:17:00,60.5,52.5,30.08,North,0,8.1,8.1,75,0.00,BKN,,0.01,352.0,WeatherDisplay:10.37,2013-08-10 13:17:00,
2013-08-10 14:22:00,60.5,52.2,30.07,NNW,339,4.6,4.6,74,0.00,BKN,,0.01,371.0,WeatherDisplay:10.37,2013-08-10 13:22:00,
2013-08-10 14:28:00,60.7,52.4,30.07,North,349,8.1,8.1,74,0.00,BKN,,0.01,378.0,WeatherDisplay:10.37,2013-08-10 13:28:00,
2013-08-10 14:33:00,61.0,52.7,30.07,NW,323,6.9,6.9,74,0.00,BKN,,0.01,389.0,WeatherDisplay:10.37,2013-08-10 13:33:00,
2013-08-10 14:38:00,61.2,52.8,30.07,WSW,250,6.9,6.9,74,0.00,BKN,,0.01,438.0,WeatherDisplay:10.37,2013-08-10 13:38:00,
2013-08-10 14:43:00,61.3,52.9,30.07,North,352,10.4,10.4,74,0.00,SCT,,0.01,574.0,WeatherDisplay:10.37,2013-08-10 13:43:00,
2013-08-10 14:48:00,61.6,53.2,30.07,NNW,333,8.1,8.1,74,0.00,SCT,,0.01,521.0,WeatherDisplay:10.37,2013-08-10 13:48:00,
2013-08-10 14:53:00,62.0,52.9,30.07,NNW,332,5.8,5.8,72,0.00,SCT,,0.01,477.0,WeatherDisplay:10.37,2013-08-10 13:53:00,
2013-08-10 14:59:00,62.0,52.5,30.07,NW,320,8.1,8.1,71,0.00,SCT,,0.01,486.0,WeatherDisplay:10.37,2013-08-10 13:59:00,
2013-08-10 15:04:00,62.0,52.5,30.07,NW,322,6.9,6.9,71,0.00,BKN,,0.01,380.0,WeatherDisplay:10.37,2013-08-10 14:04:00,
2013-08-10 15:09:00,62.0,52.5,30.07,NW,315,5.8,5.8,71,0.00,SCT,,0.01,417.0,WeatherDisplay:10.37,2013-08-10 14:09:00,
2013-08-10 15:14:00,62.6,53.1,30.07,North,352,3.5,4.8,71,0.00,CLR,,0.01,1072.0,WeatherDisplay:10.37,2013-08-10 14:14:00,
2013-08-10 15:19:00,63.7,54.5,30.06,North,0,10.4,10.4,72,0.00,SCT,,0.01,623.0,WeatherDisplay:10.37,2013-08-10 14:19:00,
2013-08-10 15:25:00,64.5,54.1,30.06,NNW,336,8.1,8.1,69,0.00,CLR,,0.01,973.0,WeatherDisplay:10.37,2013-08-10 14:25:00,
2013-08-10 15:30:00,64.0,52.8,30.06,SW,230,6.0,6.0,67,0.00,CLR,,0.01,973.0,WeatherDisplay:10.37,2013-08-10 14:30:00,
2013-08-10 15:35:00,64.5,53.7,30.06,North,356,8.1,8.1,68,0.00,SCT,,0.01,394.0,WeatherDisplay:10.37,2013-08-10 14:35:00,
2013-08-10 15:40:00,63.9,53.1,30.06,NNW,328,3.0,3.0,68,0.00,SCT,,0.01,413.0,WeatherDisplay:10.37,2013-08-10 14:40:00,
2013-08-10 15:45:00,63.7,53.3,30.05,North,357,4.6,4.6,69,0.00,BKN,,0.01,336.0,WeatherDisplay:10.37,2013-08-10 14:45:00,
2013-08-10 15:51:00,63.1,52.8,30.05,NNW,340,4.6,4.6,69,0.00,SCT,,0.01,447.0,WeatherDisplay:10.37,2013-08-10 14:51:00,
2013-08-10 15:56:00,63.4,52.7,30.05,NW,319,3.5,3.5,68,0.00,SCT,,0.01,447.0,WeatherDisplay:10.37,2013-08-10 14:56:00,
2013-08-10 16:01:00,63.7,52.9,30.05,North,357,5.8,5.8,68,0.00,SCT,,0.01,401.0,WeatherDisplay:10.37,2013-08-10 15:01:00,
2013-08-10 16:06:00,63.2,52.1,30.05,NNW,339,6.9,6.9,67,0.00,BKN,,0.01,347.0,WeatherDisplay:10.37,2013-08-10 15:06:00,
2013-08-10 16:11:00,62.6,52.3,30.05,NNW,330,4.0,4.0,69,0.00,BKN,,0.01,331.0,WeatherDisplay:10.37,2013-08-10 15:11:00,
2013-08-10 16:16:00,62.4,52.5,30.05,North,356,5.0,5.0,70,0.00,BKN,,0.01,299.0,WeatherDisplay:10.37,2013-08-10 15:16:00,
2013-08-10 16:21:00,62.1,52.6,30.05,NNW,343,5.8,5.8,71,0.00,SCT,,0.01,357.0,WeatherDisplay:10.37,2013-08-10 15:21:00,
2013-08-10 16:26:00,62.0,52.9,30.05,NW,325,8.1,8.1,72,0.00,SCT,,0.01,320.0,WeatherDisplay:10.37,2013-08-10 15:26:00,
2013-08-10 16:31:00,62.0,52.5,30.05,North,357,8.1,8.1,71,0.00,BKN,,0.01,276.0,WeatherDisplay:10.37,2013-08-10 15:31:00,
2013-08-10 16:37:00,62.0,52.9,30.05,North,356,6.0,6.0,72,0.00,BKN,,0.01,273.0,WeatherDisplay:10.37,2013-08-10 15:37:00,
2013-08-10 16:42:00,61.6,52.1,30.05,SW,227,3.5,3.5,71,0.00,BKN,,0.01,253.0,WeatherDisplay:10.37,2013-08-10 15:42:00,
2013-08-10 16:47:00,61.5,52.4,30.05,NNW,339,3.5,3.5,72,0.00,BKN,,0.01,216.0,WeatherDisplay:10.37,2013-08-10 15:47:00,
2013-08-10 16:52:00,61.5,52.4,30.04,NNW,329,4.0,4.0,72,0.00,BKN,,0.01,199.0,WeatherDisplay:10.37,2013-08-10 15:52:00,
2013-08-10 16:57:00,61.3,52.6,30.04,North,354,3.5,3.5,73,0.00,OVC,,0.01,144.0,WeatherDisplay:10.37,2013-08-10 15:57:00,
2013-08-10 17:02:00,61.2,52.8,30.04,SW,236,2.3,2.3,74,0.00,BKN,,0.01,209.0,WeatherDisplay:10.37,2013-08-10 16:02:00,
2013-08-10 17:07:00,60.9,52.6,30.04,North,0,6.9,6.9,74,0.00,BKN,,0.01,197.0,WeatherDisplay:10.37,2013-08-10 16:07:00,
2013-08-10 17:12:00,60.9,52.9,30.04,North,359,5.8,5.8,75,0.00,OVC,,0.01,160.0,WeatherDisplay:10.37,2013-08-10 16:12:00,
2013-08-10 17:18:00,60.7,52.4,30.04,NNW,343,6.9,6.9,74,0.00,OVC,,0.01,95.0,WeatherDisplay:10.37,2013-08-10 16:18:00,
2013-08-10 17:23:00,60.4,52.1,30.04,North,356,8.1,8.1,74,0.00,OVC,,0.01,107.0,WeatherDisplay:10.37,2013-08-10 16:23:00,
2013-08-10 17:28:00,60.1,52.5,30.04,NNW,336,4.6,4.6,76,0.00,OVC,,0.01,121.0,WeatherDisplay:10.37,2013-08-10 16:28:00,
2013-08-10 17:34:00,59.9,52.7,30.03,WNW,287,2.3,2.3,77,0.00,OVC,,0.01,118.0,WeatherDisplay:10.37,2013-08-10 16:34:00,
2013-08-10 17:39:00,59.9,52.7,30.03,NNW,339,5.8,5.8,77,0.00,BKN,,0.01,158.0,WeatherDisplay:10.37,2013-08-10 16:39:00,
2013-08-10 17:44:00,59.9,52.7,30.03,NW,319,2.3,2.3,77,0.00,OVC,,0.01,83.0,WeatherDisplay:10.37,2013-08-10 16:44:00,
2013-08-10 17:49:00,59.9,53.0,30.03,NNW,344,6.9,6.9,78,0.00,OVC,,0.01,46.0,WeatherDisplay:10.37,2013-08-10 16:49:00,
2013-08-10 17:54:00,59.8,53.3,30.03,SW,232,3.5,3.5,79,0.01,RA,,0.02,127.0,WeatherDisplay:10.37,2013-08-10 16:54:00,
2013-08-10 17:59:00,59.2,54.0,30.02,North,352,2.3,2.3,83,0.01,RA,,0.02,162.0,WeatherDisplay:10.37,2013-08-10 16:59:00,
2013-08-10 18:04:00,58.6,54.1,30.02,North,356,3.5,3.5,85,0.01,BKN,,0.02,178.0,WeatherDisplay:10.37,2013-08-10 17:04:00,
2013-08-10 18:09:00,58.4,54.2,30.02,North,352,5.8,5.8,86,0.01,SCT,,0.02,218.0,WeatherDisplay:10.37,2013-08-10 17:09:00,
2013-08-10 18:14:00,59.0,54.5,30.02,North,0,6.9,6.9,85,0.01,CLR,,0.02,357.0,WeatherDisplay:10.37,2013-08-10 17:14:00,
2013-08-10 18:19:00,60.1,54.9,30.02,NW,315,1.2,1.2,83,0.01,CLR,,0.02,371.0,WeatherDisplay:10.37,2013-08-10 17:19:00,
2013-08-10 18:24:00,60.1,54.6,30.02,NW,322,2.3,2.3,82,0.01,SCT,,0.02,206.0,WeatherDisplay:10.37,2013-08-10 17:24:00,
2013-08-10 18:29:00,60.1,54.2,30.02,North,353,5.8,5.8,81,0.01,SCT,,0.02,155.0,WeatherDisplay:10.37,2013-08-10 17:29:00,
2013-08-10 18:34:00,59.9,54.4,30.02,NNW,347,5.8,5.8,82,0.01,BKN,,0.02,148.0,WeatherDisplay:10.37,2013-08-10 17:34:00,
2013-08-10 18:39:00,59.5,53.7,30.02,NW,323,5.8,5.8,81,0.01,BKN,,0.02,134.0,WeatherDisplay:10.37,2013-08-10 17:39:00,
2013-08-10 18:44:00,60.1,54.6,30.02,North,0,2.3,2.3,82,0.01,CLR,,0.02,415.0,WeatherDisplay:10.37,2013-08-10 17:44:00,
2013-08-10 18:50:00,61.0,54.8,30.01,North,354,3.5,3.5,80,0.01,CLR,,0.02,273.0,WeatherDisplay:10.37,2013-08-10 17:50:00,
2013-08-10 18:55:00,60.9,54.3,30.01,NW,323,3.5,3.5,79,0.00,CLR,,0.02,278.0,WeatherDisplay:10.37,2013-08-10 17:55:00,
2013-08-10 19:00:00,61.0,54.1,30.01,NNW,328,3.0,8.0,78,0.00,CLR,,0.02,317.0,WeatherDisplay:10.37,2013-08-10 18:00:00,
2013-08-10 19:05:00,60.5,54.0,30.01,NW,322,4.6,4.6,79,0.00,SCT,,0.02,116.0,WeatherDisplay:10.37,2013-08-10 18:05:00,
2013-08-10 19:10:00,60.1,53.9,30.01,NW,326,3.5,3.5,80,0.00,BKN,,0.02,88.0,WeatherDisplay:10.37,2013-08-10 18:10:00,
2013-08-10 19:15:00,59.8,53.6,30.01,NNW,332,5.8,5.8,80,0.00,OVC,,0.02,63.0,WeatherDisplay:10.37,2013-08-10 18:15:00,
2013-08-10 19:21:00,59.6,53.8,30.00,North,0,3.5,3.5,81,0.00,BKN,,0.02,77.0,WeatherDisplay:10.37,2013-08-10 18:21:00,
2013-08-10 19:26:00,59.6,54.1,30.00,NNW,347,3.5,3.5,82,0.00,BKN,,0.02,83.0,WeatherDisplay:10.37,2013-08-10 18:26:00,
2013-08-10 19:31:00,59.6,54.1,30.00,SW,226,8.1,8.1,82,0.00,BKN,,0.02,74.0,WeatherDisplay:10.37,2013-08-10 18:31:00,
2013-08-10 19:36:00,59.5,54.3,30.00,North,349,2.3,2.3,83,0.00,OVC,,0.02,48.0,WeatherDisplay:10.37,2013-08-10 18:36:00,
2013-08-10 19:41:00,59.5,54.3,30.00,North,350,4.6,4.6,83,0.00,BKN,,0.02,67.0,WeatherDisplay:10.37,2013-08-10 18:41:00,
2013-08-10 19:46:00,59.5,54.3,30.00,NW,320,3.5,3.5,83,0.00,SCT,,0.02,67.0,WeatherDisplay:10.37,2013-08-10 18:46:00,
2013-08-10 19:51:00,59.3,54.1,30.00,WSW,241,5.8,5.8,83,0.00,BKN,,0.02,42.0,WeatherDisplay:10.37,2013-08-10 18:51:00,
2013-08-10 19:57:00,59.2,54.4,30.00,North,0,4.6,4.6,84,0.00,OVC,,0.02,35.0,WeatherDisplay:10.37,2013-08-10 18:57:00,
2013-08-10 20:02:00,59.0,54.2,30.00,North,353,3.5,3.5,84,0.00,OVC,,0.02,25.0,WeatherDisplay:10.37,2013-08-10 19:02:00,
2013-08-10 20:07:00,58.9,54.1,30.00,North,354,3.5,3.5,84,0.00,OVC,,0.02,21.0,WeatherDisplay:10.37,2013-08-10 19:07:00,
2013-08-10 20:12:00,58.7,53.9,30.00,North,0,2.3,2.3,84,0.00,OVC,,0.02,21.0,WeatherDisplay:10.37,2013-08-10 19:12:00,
2013-08-10 20:18:00,58.6,54.1,30.00,NW,320,1.2,1.2,85,0.00,OVC,,0.02,16.0,WeatherDisplay:10.37,2013-08-10 19:18:00,
2013-08-10 20:23:00,58.6,54.1,30.00,SW,236,2.3,2.3,85,0.00,OVC,,0.02,16.0,WeatherDisplay:10.37,2013-08-10 19:23:00,
2013-08-10 20:28:00,58.6,54.1,30.00,NNW,347,3.5,3.5,85,0.00,OVC,,0.02,16.0,WeatherDisplay:10.37,2013-08-10 19:28:00,
2013-08-10 20:33:00,58.4,54.2,30.00,NNW,347,1.2,0.0,86,0.00,OVC,,0.02,11.0,WeatherDisplay:10.37,2013-08-10 19:33:00,
2013-08-10 20:39:00,58.3,54.1,30.00,NNW,346,5.8,5.8,86,0.00,BKN,,0.02,9.0,WeatherDisplay:10.37,2013-08-10 19:39:00,
2013-08-10 20:44:00,57.6,53.1,30.00,NNW,347,3.5,3.5,85,0.00,OVC,,0.02,7.0,WeatherDisplay:10.37,2013-08-10 19:44:00,
2013-08-10 20:49:00,57.2,52.7,30.00,NW,315,2.3,2.3,85,0.00,BKN,,0.02,5.0,WeatherDisplay:10.37,2013-08-10 19:49:00,
2013-08-10 20:54:00,56.9,52.8,30.00,SW,226,1.0,0.0,86,0.00,OVC,,0.02,0.0,WeatherDisplay:10.37,2013-08-10 19:54:00,
2013-08-10 20:59:00,56.7,52.6,30.00,SW,227,2.3,2.3,86,0.00,OVC,,0.02,0.0,WeatherDisplay:10.37,2013-08-10 19:59:00,
2013-08-10 21:04:00,56.6,52.5,30.00,SW,232,0.0,0.0,86,0.00,OVC,,0.02,0.0,WeatherDisplay:10.37,2013-08-10 20:04:00,
2013-08-10 21:10:00,56.5,52.7,30.00,NW,325,1.2,1.2,87,0.00,OVC,,0.02,0.0,WeatherDisplay:10.37,2013-08-10 20:10:00,
2013-08-10 21:15:00,56.3,52.5,30.00,NNW,344,3.5,3.5,87,0.00,OVC,,0.02,0.0,WeatherDisplay:10.37,2013-08-10 20:15:00,
2013-08-10 21:20:00,56.2,52.7,30.00,NW,320,5.0,5.0,88,0.00,OVC,,0.02,0.0,WeatherDisplay:10.37,2013-08-10 20:20:00,
2013-08-10 21:25:00,55.9,52.7,30.00,NNW,332,3.5,3.5,89,0.00,OVC,,0.02,0.0,WeatherDisplay:10.37,2013-08-10 20:25:00,
2013-08-10 21:30:00,55.7,52.5,30.00,NNW,330,4.6,4.6,89,0.00,OVC,,0.02,0.0,WeatherDisplay:10.37,2013-08-10 20:30:00,
2013-08-10 21:35:00,55.6,52.7,29.99,NNW,332,2.3,2.3,90,0.00,CLR,,0.02,0.0,WeatherDisplay:10.37,2013-08-10 20:35:00,
2013-08-10 21:41:00,55.4,52.5,29.99,NNW,336,2.3,2.3,90,0.00,CLR,,0.02,0.0,WeatherDisplay:10.37,2013-08-10 20:41:00,
2013-08-10 21:46:00,55.1,52.2,30.00,NNW,342,6.0,6.0,90,0.00,CLR,,0.02,0.0,WeatherDisplay:10.37,2013-08-10 20:46:00,
2013-08-10 21:51:00,55.0,52.4,30.00,NNW,339,11.5,11.5,91,0.00,CLR,,0.02,0.0,WeatherDisplay:10.37,2013-08-10 20:51:00,
2013-08-10 21:56:00,54.4,51.8,30.00,NNW,343,6.0,6.0,91,0.00,CLR,,0.02,0.0,WeatherDisplay:10.37,2013-08-10 20:56:00,
2013-08-10 22:01:00,53.9,51.3,30.00,WSW,251,5.8,5.8,91,0.00,CLR,,0.02,0.0,WeatherDisplay:10.37,2013-08-10 21:01:00,
2013-08-10 22:06:00,53.6,51.0,30.00,NNW,328,2.3,2.3,91,0.00,CLR,,0.02,0.0,WeatherDisplay:10.37,2013-08-10 21:06:00,
2013-08-10 22:11:00,53.5,50.9,30.00,NW,315,0.0,1.1,91,0.00,CLR,,0.02,0.0,WeatherDisplay:10.37,2013-08-10 21:11:00,
2013-08-10 22:16:00,53.3,50.7,29.99,NW,305,0.0,0.0,91,0.00,CLR,,0.02,0.0,WeatherDisplay:10.37,2013-08-10 21:16:00,
2013-08-10 22:21:00,53.3,51.0,29.99,North,350,3.5,3.5,92,0.00,CLR,,0.02,0.0,WeatherDisplay:10.37,2013-08-10 21:21:00,
2013-08-10 22:27:00,53.3,51.0,29.99,North,357,1.2,1.2,92,0.00,CLR,,0.02,0.0,WeatherDisplay:10.37,2013-08-10 21:27:00,
2013-08-10 22:32:00,53.2,50.9,29.99,North,0,0.0,0.0,92,0.00,CLR,,0.02,0.0,WeatherDisplay:10.37,2013-08-10 21:32:00,
2013-08-10 22:37:00,53.2,50.9,29.99,North,354,1.2,1.2,92,0.00,CLR,,0.02,0.0,WeatherDisplay:10.37,2013-08-10 21:37:00,
2013-08-10 22:42:00,53.2,51.2,29.99,NW,315,3.5,3.5,93,0.00,CLR,,0.02,0.0,WeatherDisplay:10.37,2013-08-10 21:42:00,
2013-08-10 22:47:00,53.2,51.2,29.99,NW,322,0.0,0.0,93,0.00,CLR,,0.02,0.0,WeatherDisplay:10.37,2013-08-10 21:47:00,
2013-08-10 22:53:00,53.2,51.2,29.99,NW,318,0.0,0.0,93,0.00,CLR,,0.02,0.0,WeatherDisplay:10.37,2013-08-10 21:53:00,
2013-08-10 22:58:00,53.2,51.2,29.99,SW,236,0.0,0.0,93,0.00,CLR,,0.02,0.0,WeatherDisplay:10.37,2013-08-10 21:58:00,
2013-08-10 23:03:00,53.2,51.5,29.99,SW,236,0.0,0.0,94,0.00,CLR,,0.02,0.0,WeatherDisplay:10.37,2013-08-10 22:03:00,
2013-08-10 23:08:00,53.2,51.5,29.98,North,0,1.0,1.0,94,0.00,CLR,,0.02,0.0,WeatherDisplay:10.37,2013-08-10 22:08:00,
2013-08-10 23:13:00,53.2,51.5,29.98,WSW,246,0.0,0.4,94,0.00,CLR,,0.02,0.0,WeatherDisplay:10.37,2013-08-10 22:13:00,
2013-08-10 23:18:00,53.2,51.5,29.98,SW,226,0.0,0.0,94,0.00,CLR,,0.02,0.0,WeatherDisplay:10.37,2013-08-10 22:18:00,
2013-08-10 23:24:00,53.2,51.5,29.98,North,349,2.3,2.3,94,0.00,CLR,,0.02,0.0,WeatherDisplay:10.37,2013-08-10 22:24:00,
2013-08-10 23:29:00,53.1,51.4,29.98,North,350,2.0,2.0,94,0.00,CLR,,0.02,0.0,WeatherDisplay:10.37,2013-08-10 22:29:00,
2013-08-10 23:34:00,53.1,51.4,29.98,North,354,3.5,3.5,94,0.00,CLR,,0.02,0.0,WeatherDisplay:10.37,2013-08-10 22:34:00,
2013-08-10 23:39:00,53.1,51.4,29.98,North,0,1.2,0.0,94,0.00,CLR,,0.02,0.0,WeatherDisplay:10.37,2013-08-10 22:39:00,
2013-08-10 23:44:00,53.1,51.4,29.98,WSW,237,1.2,1.2,94,0.00,CLR,,0.02,0.0,WeatherDisplay:10.37,2013-08-10 22:44:00,
2013-08-10 23:49:00,53.1,51.4,29.98,North,0,3.5,3.5,94,0.00,CLR,,0.02,0.0,WeatherDisplay:10.37,2013-08-10 22:49:00,
2013-08-10 23:54:00,52.9,51.2,29.98,North,0,1.2,1.5,94,0.00,CLR,,0.02,0.0,WeatherDisplay:10.37,2013-08-10 22:54:00,
2013-08-10 23:59:00,52.9,51.2,29.98,NW,312,2.3,2.3,94,0.00,CLR,,0.02,0.0,WeatherDisplay:10.37,2013-08-10 22:59:00,